Location: Complexul Astronomic Baia Mare
(47.6577°N, 23.5639°E)
Time: 03:32:25
(UTC+03:00)

ISS - Pass Details

Date: 31 May 2017
Orbit: 400 x 408 km, 51.6° (Epoch: 25 July)

Event Time Altitude Azimuth Distance (km) Brightness Sun altitude
Rises 23:03:04 0° 284° (WNW) 2,346 0.8 -13.5°
Reaches altitude 10° 23:05:14 10° 292° (WNW) 1,483 -0.1 -13.7°
Maximum altitude 23:08:24 40° 4° (N) 620 -2.5 -14.0°
Drops below altitude 10° 23:11:34 10° 76° (ENE) 1,476 -1.2 -14.3°
Enters shadow 23:12:30 - 81° (E) 1,847 -0.7 -14.3°
